User: anonymous   Login
Location: Unspecified
(0.0000°N, 0.0000°E)
Time: 17:56:07
(UTC+00:00)
Language:

Transit VBN-1 - Orbit

View from above orbital plane
View from above orbital plane
View from above satellite
View from above satellite

Ground track
Ground track

The orbit is defined by the following mean orbital elements,

1 00670U          26106.09139245 +.00000000 +00000-0 +12438-3 0 00005
2 00670  89.9669 333.1375 0040411 210.0607 149.8221 13.44674001    00
Epoch (UTC): 16 April 2026 02:11:36
Eccentricity: 0.0040411
inclination: 89.9669°
perigee height: 1062 km
apogee height: 1122 km
right ascension of ascending node: 333.1375°
argument of perigee: 210.0607°
revolutions per day: 13.44674001
mean anomaly at epoch: 149.8221°

The dashed part of the orbit path shows where the satellite is in the earth's shadow,  

DLR